DW6178 Weather Reports


Display with metric or nautical units.
time (UTC)temp
F
wind
direction
speed
MPH
gust
MPH
rain 1hr
in
rain 24hr
in
rain mn
in
humidity
%
barometer
mb
20181214023132 47 72 1.0 2.0 0.00 0.00 0.00 9 1023.9
20181214021632 47 87 0.0 2.0 0.00 0.00 0.00 10 1024.2
20181214020122 47 84 0.0 2.0 0.00 0.00 0.00 10 1024.1
20181214014554 46 82 1.0 2.0 0.00 0.00 0.00 12 1023.8
20181214013047 46 89 1.0 2.0 0.00 0.00 0.00 14 1023.5
20181214011556 45 65 0.0 1.0 0.00 0.00 0.00 17 1023.5
20181214010036 45 74 1.0 2.0 0.00 0.00 0.00 18 1023.3
20181214004523 45 74 1.0 2.0 0.00 0.00 0.00 21 1023.2
20181214003031 46 74 1.0 3.0 0.00 0.00 0.00 19 1023.2
20181214001516 46 76 1.0 3.0 0.00 0.00 0.00 23 1023.1
20181213234650 47 69 1.0 3.0 0.00 0.00 0.00 24 1023.2
20181213233220 47 79 1.0 3.0 0.00 0.00 0.00 25 1023.1
20181213231624 48 107 2.0 3.0 0.00 0.00 0.00 22 1023.2
20181213230111 48 69 1.0 3.0 0.00 0.00 0.00 24 1023.4
20181213224620 49 104 2.0 4.0 0.00 0.00 0.00 24 1023.0
20181213223041 50 84 2.0 4.0 0.00 0.00 0.00 26 1023.0
20181213221552 51 62 0.0 4.0 0.00 0.00 0.00 25 1023.1
20181213220049 51 81 1.0 3.0 0.00 0.00 0.00 24 1023.1
20181213214548 51 70 1.0 3.0 0.00 0.00 0.00 23 1023.1
20181213213026 51 95 1.0 3.0 0.00 0.00 0.00 24 1023.0
20181213211607 52 81 2.0 5.0 0.00 0.00 0.00 27 1023.1
20181213210044 52 76 2.0 3.0 0.00 0.00 0.00 27 1023.2
20181213204515 52 70 1.0 4.0 0.00 0.00 0.00 27 1023.3
20181213203302 52 120 1.0 4.0 0.00 0.00 0.00 28 1023.4
20181213201633 52 340 1.0 3.0 0.00 0.00 0.00 25 1023.5
20181213200143 52 70 1.0 6.0 0.00 0.00 0.00 25 1023.7
20181213194621 52 78 1.0 3.0 0.00 0.00 0.00 26 1024.0
20181213193157 52 94 1.0 6.0 0.00 0.00 0.00 26 1024.3
20181213191642 51 78 1.0 3.0 0.00 0.00 0.00 25 1024.6
20181213190043 52 74 1.0 3.0 0.00 0.00 0.00 24 1024.9
20181213184639 52 113 0.0 5.0 0.00 0.00 0.00 25 1025.0
20181213183042 51 117 0.0 8.0 0.00 0.00 0.00 23 1025.4
20181213181526 51 68 1.0 4.0 0.00 0.00 0.00 21 1025.7
20181213180046 51 84 1.0 3.0 0.00 0.00 0.00 19 1025.8
20181213174518 50 270 1.0 3.0 0.00 0.00 0.00 18 1025.7
20181213173014 49 60 0.0 2.0 0.00 0.00 0.00 19 1025.8
20181213171507 49 271 0.0 2.0 0.00 0.00 0.00 20 1025.6
20181213170009 49 293 0.0 3.0 0.00 0.00 0.00 13 1025.5
20181213164730 49 53 1.0 3.0 0.00 0.00 0.00 10 1025.2
20181213163139 49 334 0.0 3.0 0.00 0.00 0.00 12 1024.9
20181213161649 48 86 1.0 2.0 0.00 0.00 0.00 10 1024.6
20181213160104 47 330 0.0 3.0 0.00 0.00 0.00 9 1024.0
20181213154632 0 0.0 0.0 0.00 0.00 0.00 1023.8
20181213153118 0 0.0 0.0 0.00 0.00 0.00 1023.5
20181213151553 0 0.0 0.0 0.00 0.00 0.00 1023.4
20181213150056 0 0.0 0.0 0.00 0.00 0.00 1023.3
20181213144621 0 0.0 0.0 0.00 0.00 0.00 1023.2
20181213143059 0 0.0 0.0 0.00 0.00 0.00 1023.1
20181213141522 0 0.0 0.0 0.00 0.00 0.00 1023.1
20181213140014 0 0.0 0.0 0.00 0.00 0.00 1022.9
20181213134506 0 0.0 0.0 0.00 0.00 0.00 1022.8
20181213133147 0 0.0 0.0 0.00 0.00 0.00 1022.7
20181213131702 0 0.0 0.0 0.00 0.00 0.00 1022.6
20181213130208 0 0.0 0.0 0.00 0.00 0.00 1022.5
20181213124651 0 0.0 0.0 0.00 0.00 0.00 1022.4
20181213123134 0 0.0 0.0 0.00 0.00 0.00 1022.3
20181213121658 0 0.0 0.0 0.00 0.00 0.00 1022.2
20181213120204 0 0.0 0.0 0.00 0.00 0.00 1022.2
20181213114618 0 0.0 0.0 0.00 0.00 0.00 1022.1
20181213113050 0 0.0 0.0 0.00 0.00 0.00 1022.2
20181213111634 0 0.0 0.0 0.00 0.00 0.00 1022.5
20181213110103 43 91 1.0 2.0 0.00 0.00 0.00 26 1022.6
20181213104537 44 104 1.0 3.0 0.00 0.00 0.00 28 1022.6
20181213103057 44 79 1.0 3.0 0.00 0.00 0.00 29 1022.5
20181213101614 44 91 1.0 2.0 0.00 0.00 0.00 30 1022.5
20181213100049 44 72 1.0 2.0 0.00 0.00 0.00 30 1022.5
20181213094613 44 60 1.0 3.0 0.00 0.00 0.00 26 1022.4
20181213093037 44 62 1.0 2.0 0.00 0.00 0.00 28 1022.4
20181213091527 44 61 0.0 2.0 0.00 0.00 0.00 27 1022.2
20181213090047 44 319 0.0 5.0 0.00 0.00 0.00 25 1022.4
20181213084555 44 282 0.0 2.0 0.00 0.00 0.00 27 1022.4
20181213083025 44 335 0.0 6.0 0.00 0.00 0.00 28 1022.4
20181213081537 44 323 0.0 7.0 0.00 0.00 0.00 29 1022.2
20181213080014 45 265 0.0 1.0 0.00 0.00 0.00 30 1022.2
20181213074525 45 271 0.0 3.0 0.00 0.00 0.00 25 1022.0
20181213073020 45 331 0.0 2.0 0.00 0.00 0.00 27 1022.0
20181213071516 45 337 0.0 3.0 0.00 0.00 0.00 28 1022.0
20181213070019 45 338 1.0 3.0 0.00 0.00 0.00 28 1022.0
20181213064516 45 46 1.0 5.0 0.00 0.00 0.00 26 1021.7
20181213063039 46 281 1.0 6.0 0.00 0.00 0.00 25 1021.9
20181213061514 46 11 1.0 6.0 0.00 0.00 0.00 25 1022.0
20181213060017 46 329 1.0 5.0 0.00 0.00 0.00 24 1022.0
20181213054543 46 354 1.0 7.0 0.00 0.00 0.00 24 1022.4
20181213053013 45 333 1.0 6.0 0.00 0.00 0.00 25 1022.4
20181213051535 45 297 1.0 6.0 0.00 0.00 0.00 27 1022.3
20181213050006 45 295 1.0 6.0 0.00 0.00 0.00 26 1022.5
20181213044506 46 302 1.0 4.0 0.00 0.00 0.00 24 1022.4
20181213043002 47 307 1.0 5.0 0.00 0.00 0.00 23 1021.8
20181213041501 47 252 1.0 7.0 0.00 0.00 0.00 23 1021.4
20181213040001 47 39 2.0 7.0 0.00 0.00 0.00 23 1021.5
20181213034655 47 34 1.0 6.0 0.00 0.00 0.00 23 1021.9
20181213033154 46 284 1.0 4.0 0.00 0.00 0.00 25 1021.7
20181213031640 46 293 0.0 5.0 0.00 0.00 0.00 26 1021.4
20181213030204 47 50 1.0 7.0 0.00 0.00 0.00 26 1021.2
20181213024738 47 44 1.0 6.0 0.00 0.00 0.00 26 1021.1